* Astronomy

Members Login
Username 
 
Password 
    Remember Me  
Post Info TOPIC: Asteroid 2012 BV61


L

Posts: 131433
Date:
Asteroid 2012 BV61
Permalink  
 


Orbital elements:
2012 BV61                                                Earth MOID = 0.0114 AU
Epoch 2012 Mar. 14.0 TT = JDT 2456000.5                 MPC
M  32.69555              (2000.0)            P               Q
n   0.51812768     Peri.   58.82673     -0.32386336     -0.94606488
a   1.5352468      Node    50.07249     +0.86417715     -0.29950168
e   0.3556047      Incl.    0.64170     +0.38511087     -0.12353128
P   1.90           H   25.3           G   0.15           U   7

MPEC 2012 - B71



__________________
Page 1 of 1  sorted by
 
Quick Reply

Please log in to post quick replies.



Create your own FREE Forum
Report Abuse
Powered by ActiveBoard